Location: Carite
(10.3909°N, 67.0102°W)
Time: 02:01:05
(UTC+00:00)

Cosmos 1743 - Pass Details

Date: 08 September 2024
Orbit: 465 x 477 km, 82.5° (Epoch: 06 October)

Event Time Altitude Azimuth Distance (km) Brightness Sun altitude
Rises 22:56:15 0° 161° (SSE) 2,533 6.0 -6.6°
Reaches altitude 10° 22:58:39 10° 147° (SSE) 1,650 4.9 -7.2°
Maximum altitude 23:01:34 23° 93° (E) 1,047 3.6 -7.9°
Drops below altitude 10° 23:04:28 10° 38° (NE) 1,640 4.9 -8.6°
Sets 23:06:49 0° 24° (NNE) 2,513 6.0 -9.2°
